RH
85 85 89 89 89 89 89 90 89 88 88 89 90 92 93 92 88 30 15 20 44 85 84 76 67 66 66 71 54 63 84 77 66 60 46 31 38 36 35 46 41 41 43 42 46
83 87 88 89 89 89 89 88 89 89 89 90 90 91 93 92 70 34 30 60 81 86 48 52 67 64 79 59 51 68 81 60 44 43 38 30 38 38 47 50 50 46 40 50 55
87 88 88 87 89 89 89 89 90 90 89 90 89 90 92 92 30 16 61 74 87 82 30 19 20 23 34 39 43 56 58 46 30 33 30 37 40 38 50 58 52 50 41 50 50
86 87 90 87 85 85 87 89 91 90 90 89 88 89 91 73 16 15 70 75 82 52 27 20 26 35 34 30 29 48 40 32 35 29 29 41 38 43 47 50 42 39 35 39 47
88 90 91 91 90 91 91 91 92 92 90 88 87 87 61 34 22 13 73 69 57 35 21 20 26 30 31 31 26 36 33 30 28 28 30 30 41 43 44 40 38 35 36 38 38
91 91 91 91 90 90 91 91 92 92 89 87 85 87 60 28 12 23 36 53 35 29 18 18 20 25 26 36 35 32 29 24 29 30 27 34 37 43 43 36 37 37 39 40 38
91 91 91 90 91 91 91 92 91 90 88 86 84 64 51 18 12 11 18 28 21 21 21 19 17 20 20 35 28 32 39 40 36 33 32 33 50 50 39 37 39 40 40 38 38
92 91 91 91 91 93 94 94 92 88 86 84 81 71 36 18 18 14 12 9 8 13 15 15 17 18 19 25 34 42 44 52 34 34 38 40 62 56 47 42 43 41 39 38 40
91 92 92 92 92 92 92 94 89 84 82 78 78 62 30 24 16 13 12 8 8 10 12 9 16 21 19 29 44 44 50 44 44 32 36 45 64 46 43 51 43 42 40 38 39
90 92 92 92 91 92 92 91 82 75 70 51 36 32 22 12 12 8 8 6 6 9 10 14 20 25 27 31 36 42 45 39 48 41 47 54 59 49 52 54 42 42 40 40 39
90 92 92 91 91 92 91 62 34 33 41 31 26 23 13 12 12 7 6 6 8 11 16 14 23 27 23 24 22 32 35 36 32 34 69 66 60 56 57 58 55 47 40 40 38
90 91 93 92 92 90 92 47 36 32 28 22 22 22 15 21 21 16 6 7 12 13 17 18 22 17 18 18 19 25 31 41 45 46 60 66 63 59 60 46 54 53 43 37 36
90 92 94 94 89 81 55 39 29 34 31 24 20 18 18 20 21 16 8 8 12 16 14 19 15 13 15 16 17 24 29 39 51 45 52 64 74 65 60 57 48 50 48 43 37
90 92 95 96 59 72 48 32 31 24 43 30 22 15 14 15 17 9 7 7 10 11 14 16 11 11 12 13 15 24 18 27 38 45 58 56 78 72 62 56 52 55 54 52 43
90 92 96 96 93 73 35 39 34 27 41 18 16 11 13 16 14 8 7 8 8 9 14 14 12 12 13 11 12 13 24 30 36 55 64 62 72 67 62 61 54 51 52 51 48
90 92 94 82 95 72 54 47 30 39 33 18 11 13 13 15 12 9 8 8 8 9 11 11 10 11 10 8 9 9 36 39 57 63 64 64 53 59 58 44 50 50 44 49 47
92 94 95 71 65 53 54 37 40 51 22 14 15 12 12 12 12 11 12 12 10 14 15 10 8 8 8 9 9 13 24 32 35 70 69 82 64 55 42 37 44 42 43 53 62
95 95 94 78 86 67 46 35 61 30 23 15 14 14 14 13 12 11 12 11 10 13 14 14 12 9 8 9 10 12 21 31 38 64 80 69 69 54 36 32 42 42 40 42 46
94 95 78 68 68 64 42 54 43 30 18 17 17 15 16 13 12 15 12 11 9 10 12 14 12 9 7 7 8 9 20 17 28 72 71 72 57 42 44 34 32 33 38 39 40
98 98 80 48 54 47 49 57 36 20 16 16 24 21 21 20 21 17 12 8 9 9 9 10 11 8 6 8 8 8 10 22 27 40 54 64 64 57 49 39 36 39 32 38 39
95 78 51 42 38 47 54 51 28 20 18 18 18 19 22 22 21 21 14 8 7 6 9 9 10 7 10 11 9 11 20 26 21 35 48 66 57 48 43 43 34 39 37 39 40
97 72 42 35 46 58 56 40 33 21 18 18 17 16 19 15 18 18 19 17 11 7 8 9 11 11 9 10 8 9 11 16 21 21 44 48 37 31 35 35 39 42 34 42 42
99 86 46 34 57 61 46 30 24 22 20 18 16 18 16 18 19 21 18 14 14 12 11 9 14 16 11 10 10 13 14 19 20 27 37 43 43 35 40 45 37 42 37 41 47
99 88 59 48 53 60 50 48 32 23 20 17 15 18 16 18 23 23 20 16 20 20 52 28 14 15 16 13 15 14 10 13 18 24 28 36 40 52 44 38 36 35 41 34 46
98 84 76 83 68 67 71 50 39 32 22 18 19 15 16 23 21 21 22 27 26 40 28 12 12 14 13 12 14 13 10 9 21 16 16 22 37 49 36 32 23 25 44 46 51
98 95 85 91 79 80 73 54 38 31 34 33 30 26 20 22 22 33 39 39 40 29 34 34 19 20 16 12 13 12 10 10 11 12 17 30 34 40 31 24 29 29 45 49 52
85 82 93 86 74 80 71 50 42 39 35 33 32 32 33 32 32 35 37 34 34 43 36 39 43 42 43 34 21 16 44 30 21 50 36 36 29 32 38 34 32 32 44 48 47
Wind_Speed
16 17 17 18 17 17 17 16 17 17 17 18 17 16 17 18 19 2 6 10 8 28 21 17 11 10 1 3 3 2 5 3 4 4 7 3 8 13 10 16 8 12 11 16 22
17 18 19 19 19 18 19 17 18 19 19 19 18 17 16 15 4 6 13 9 9 23 9 19 19 20 7 8 5 4 3 6 8 5 8 8 7 6 9 12 10 17 10 22 25
17 18 19 20 20 20 20 19 19 19 19 18 18 17 16 12 5 7 4 11 13 15 2 1 6 9 11 7 6 4 4 4 6 17 11 5 4 4 15 7 19 22 18 23 22
19 19 17 18 18 18 19 19 20 20 19 18 17 18 20 2 1 3 8 8 11 6 1 2 1 1 2 7 6 2 7 5 4 5 9 5 6 5 7 8 17 17 15 18 21
15 16 17 18 19 19 19 20 19 19 19 16 15 14 5 3 10 5 10 9 6 5 5 3 3 4 3 7 2 6 5 2 6 8 9 12 4 4 5 16 17 18 12 9 15
16 17 18 18 19 20 19 19 20 20 19 15 12 11 1 4 6 6 8 5 5 5 4 6 8 4 3 3 4 0 4 3 4 7 4 7 3 6 12 18 18 17 12 8 8
17 18 19 20 21 22 21 21 21 20 18 13 9 3 0 17 2 5 2 5 4 7 4 6 7 4 3 3 3 4 2 5 4 2 6 17 7 5 16 17 16 13 12 12 10
17 18 20 21 23 23 23 24 23 22 15 10 3 1 9 7 4 7 7 6 8 7 7 10 8 7 3 6 5 2 4 6 5 3 2 5 4 8 12 8 15 14 11 12 10
18 19 20 21 22 25 27 28 26 17 6 3 1 2 12 11 2 9 6 5 4 6 6 10 2 2 5 4 5 7 3 4 10 4 4 6 6 3 3 10 12 13 14 13 12
19 20 22 23 23 23 26 26 10 6 2 5 5 4 7 4 5 4 6 6 4 3 7 4 6 4 5 5 7 4 4 5 9 6 16 9 2 5 6 9 6 15 13 12 13
20 21 23 25 24 22 16 6 7 5 1 8 8 7 10 5 6 6 6 3 2 5 3 7 2 8 13 8 10 8 2 7 2 12 11 7 13 14 3 1 4 6 14 14 12
20 22 24 27 28 23 3 3 7 2 11 11 14 13 16 4 7 12 6 5 4 5 1 6 7 13 7 9 12 5 7 4 13 24 10 8 9 12 18 12 8 7 12 15 10
19 21 23 28 33 1 3 7 8 5 5 10 8 8 8 10 8 12 6 6 4 4 6 7 13 7 7 9 9 4 13 5 21 19 10 12 6 8 13 10 6 7 7 9 14
18 19 20 31 5 7 8 9 13 1 6 10 4 8 5 6 7 10 9 8 3 9 6 8 12 10 9 8 5 6 10 13 21 7 5 4 6 7 11 8 8 8 7 9 8
18 18 14 9 6 5 8 14 14 6 3 3 3 3 8 11 2 6 6 5 8 8 7 12 8 10 6 9 3 9 18 9 8 7 5 3 2 3 8 9 9 10 7 6 7
19 18 16 1 3 11 11 15 4 7 5 5 5 7 6 4 4 6 4 3 4 7 4 10 4 4 8 11 3 3 10 8 6 4 3 4 2 5 4 6 5 9 8 7 3
21 20 10 3 7 2 7 5 6 4 7 6 2 3 5 5 5 5 3 4 7 4 5 8 10 7 5 6 7 6 7 3 5 7 5 2 4 10 12 9 10 7 9 12 9
22 26 7 8 5 3 4 7 1 4 5 6 8 4 8 7 7 6 3 4 4 4 4 3 11 5 4 7 8 4 8 7 5 4 2 1 6 8 10 6 5 8 4 2 4
23 3 5 6 9 3 7 4 7 4 3 11 13 6 6 6 2 1 9 9 10 10 10 6 9 2 4 5 9 11 4 9 7 3 5 5 7 8 9 18 6 5 3 7 10
5 5 5 4 11 5 6 6 6 5 8 5 2 2 6 5 5 2 6 7 7 12 7 8 5 6 7 1 6 12 6 1 4 3 3 5 6 6 7 14 10 6 9 9 10
2 5 5 9 5 6 4 8 6 11 5 3 14 6 2 3 3 4 5 10 8 11 11 8 6 20 1 2 5 4 2 3 7 6 7 4 8 9 11 11 14 7 7 8 8
4 3 3 3 4 1 3 5 5 9 8 9 7 5 1 4 4 4 5 7 6 7 10 13 8 8 12 4 6 7 9 6 7 6 3 5 8 8 9 12 11 13 9 6 4
4 5 6 6 2 3 6 8 7 18 17 6 6 2 3 3 4 2 6 7 9 8 5 9 0 2 12 10 5 1 4 5 5 5 6 7 7 6 6 2 8 9 11 6 2
3 4 6 5 2 2 5 8 7 10 10 11 8 1 4 6 2 6 5 6 11 9 8 5 4 9 8 8 3 4 7 4 5 3 4 7 6 3 7 12 9 13 10 11 7
0 4 2 4 5 5 2 5 10 13 3 6 3 5 6 2 6 6 5 8 7 7 9 5 4 5 7 6 1 2 6 7 3 8 6 8 10 12 16 12 12 10 4 6 9
1 3 5 5 4 4 5 4 9 16 5 7 7 14 5 3 4 5 3 5 3 10 8 7 3 4 6 7 7 5 8 7 5 5 4 10 7 9 12 9 6 6 6 8 10
4 4 3 5 6 3 2 10 14 16 7 2 6 5 6 3 4 4 4 4 6 2 5 5 4 5 5 4 5 6 16 11 7 11 7 3 10 12 9 13 11 8 12 15 14
Wind_Direction
7 355 353 353 351 347 342 336 331 331 326 322 323 319 320 327 317 223 230 219 170 168 141 156 186 150 197 270 217 357 83 280 230 225 128 241 106 98 166 137 169 196 143 147 134
359 355 354 352 348 343 337 330 330 329 328 325 325 322 319 329 299 250 232 199 150 162 181 162 181 162 192 218 212 150 141 228 195 219 187 187 140 121 115 143 116 124 124 131 136
355 352 350 351 346 340 333 327 325 324 326 324 322 319 315 322 320 260 285 165 150 176 234 199 172 187 206 145 226 180 199 251 293 134 227 134 126 117 126 121 148 148 154 146 143
355 346 340 342 337 331 323 321 320 319 322 323 322 319 314 227 149 275 130 141 149 170 251 230 321 211 274 160 219 173 240 271 239 214 163 163 135 106 124 165 156 154 162 146 159
342 339 335 332 327 323 320 317 315 313 318 320 321 323 345 359 250 243 143 144 143 160 211 186 262 164 344 179 187 155 230 211 286 40 165 138 158 149 151 143 152 155 165 165 161
339 336 332 328 325 321 318 313 310 308 312 315 319 318 19 280 253 130 120 156 206 201 219 165 231 179 263 237 148 133 247 150 2 337 200 138 77 112 136 142 148 159 164 184 189
338 335 332 328 325 322 318 313 307 305 303 305 305 290 210 236 236 9 144 218 218 195 227 217 230 150 198 211 312 39 343 348 1 39 75 102 31 72 141 152 156 162 173 188 205
335 332 330 329 327 324 320 313 307 301 297 290 257 232 250 255 276 275 166 253 255 233 205 260 253 231 219 107 23 296 34 21 288 82 32 49 76 50 22 175 163 173 186 193 215
332 330 328 327 329 327 320 310 305 291 243 207 158 150 267 301 214 236 189 237 287 288 251 259 27 287 2 78 2 8 100 13 315 31 96 98 204 204 58 24 181 184 189 196 211
331 330 326 325 323 322 317 303 290 320 175 190 254 3 283 280 280 212 198 202 220 331 353 343 27 6 351 74 262 204 168 127 237 32 26 25 42 116 61 28 284 188 199 204 199
329 329 326 325 323 321 336 358 6 6 176 210 211 235 282 286 285 261 192 170 61 58 236 289 69 243 248 217 246 187 148 187 270 112 61 51 345 310 146 354 261 262 199 205 207
328 328 327 324 320 326 134 6 226 219 301 234 238 233 258 62 313 310 97 139 128 220 299 354 253 244 238 263 282 171 206 206 74 120 128 7 252 278 284 199 195 200 229 200 202
326 326 328 325 319 73 245 236 280 353 285 286 212 219 229 140 221 256 129 158 159 226 242 189 252 333 274 269 253 261 205 186 117 125 124 140 268 237 265 264 240 209 226 228 190
324 326 334 330 28 330 291 292 330 218 29 278 235 250 171 169 287 219 175 150 164 197 236 239 261 247 269 264 176 282 197 120 146 114 178 199 246 222 220 255 247 255 239 214 212
321 322 335 325 291 317 272 328 322 57 6 270 226 167 149 155 230 333 155 89 211 224 117 247 289 301 289 249 168 236 123 117 158 111 118 251 89 258 169 229 228 219 206 158 233
317 317 330 201 233 242 311 301 39 45 266 279 151 173 105 229 253 338 89 81 183 216 236 239 258 203 239 278 239 219 90 46 44 87 35 319 39 281 190 226 173 176 173 171 171
311 306 307 257 237 342 326 29 46 157 313 342 125 196 183 204 248 174 242 234 189 130 302 311 281 276 194 292 323 88 67 349 343 16 233 315 54 251 271 244 227 232 188 185 177
311 309 237 207 224 278 27 48 212 270 249 293 331 164 178 174 235 206 170 229 234 120 114 169 320 206 269 191 209 241 140 153 225 186 263 41 240 255 267 264 185 173 210 153 234
313 316 268 246 191 108 76 79 219 249 326 355 331 67 355 9 41 322 205 207 218 175 167 163 263 261 282 270 152 262 230 186 119 84 95 223 276 297 279 292 315 142 220 249 242
317 328 262 170 142 82 78 227 243 269 332 357 331 354 3 313 31 80 207 214 216 194 167 223 287 237 274 272 326 165 178 46 8 149 237 322 299 242 245 244 271 308 304 245 258
348 345 273 142 98 56 164 233 282 270 303 338 307 261 307 325 20 333 262 272 207 226 167 167 143 269 6 185 233 4 287 78 122 139 155 155 258 202 217 218 240 257 231 227 307
344 341 286 100 75 176 190 220 259 287 295 278 243 238 314 309 312 319 280 227 347 247 174 196 161 234 236 243 205 175 213 157 124 259 211 160 256 327 189 211 206 246 256 266 324
333 267 296 115 191 259 290 280 263 276 274 280 304 43 61 333 336 255 279 281 350 4 214 162 186 47 339 350 8 153 269 164 120 92 194 143 258 314 100 167 273 288 284 260 235
343 340 317 31 55 104 338 291 292 288 287 270 230 73 20 337 204 288 315 331 360 355 344 83 125 144 182 221 157 332 312 293 129 113 197 206 166 216 168 189 209 255 270 249 172
218 271 356 340 330 334 283 277 306 321 274 300 205 197 210 256 323 307 332 333 345 357 351 54 173 159 206 244 332 265 284 306 199 233 180 210 173 201 192 193 197 205 146 163 166
25 15 340 279 289 18 342 298 315 328 324 342 41 322 289 209 201 290 354 33 294 327 9 354 328 48 332 344 357 309 300 309 268 277 240 173 210 209 208 200 247 199 178 187 178
323 328 114 285 327 52 284 326 327 341 276 21 329 355 33 346 276 245 215 233 231 304 339 40 54 38 296 323 0 345 3 4 328 34 337 167 236 180 216 224 215 212 176 188 184